LVFUK SADF-SARC

Flight info

Callsign LVFUK
Flight time N/A
Altitude 27000
Route LANDA UN785 GUA UL793 KILIP KILIP1V
Aircraft BE20/L-SDFGRY/S

Departure

Time 2026-04-27 20:26
Airport San Fernando Airport (SADF)

Arrival

Time N/A
Airport Corrientes Airport (SARC)
Time Latitude Longitude Altitude Speed Heading
2026-04-27 20:10 -34.45905 -58.59229 11 ft 0 kts 333°
2026-04-27 20:14 -34.45896 -58.59235 11 ft 4 kts 332°
2026-04-27 20:14 -34.45867 -58.59233 11 ft 4 kts 61°
2026-04-27 20:14 -34.45836 -58.59166 11 ft 12 kts 64°
2026-04-27 20:14 -34.45798 -58.59071 11 ft 14 kts 64°
2026-04-27 20:15 -34.45742 -58.58941 11 ft 19 kts 63°
2026-04-27 20:15 -34.45680 -58.58794 11 ft 23 kts 62°
2026-04-27 20:15 -34.45605 -58.58615 11 ft 21 kts 63°
2026-04-27 20:15 -34.45547 -58.58483 11 ft 13 kts 62°
2026-04-27 20:16 -34.45505 -58.58385 11 ft 16 kts 62°
2026-04-27 20:16 -34.45441 -58.58247 11 ft 19 kts 64°
2026-04-27 20:16 -34.45382 -58.58102 11 ft 21 kts 63°
2026-04-27 20:16 -34.45313 -58.57983 11 ft 11 kts 343°
2026-04-27 20:17 -34.45227 -58.58044 11 ft 16 kts 328°
2026-04-27 20:17 -34.45116 -58.58125 11 ft 20 kts 330°
2026-04-27 20:17 -34.45000 -58.58208 11 ft 14 kts 331°
2026-04-27 20:17 -34.44933 -58.58258 11 ft 6 kts 331°
2026-04-27 20:18 -34.44906 -58.58277 11 ft 0 kts 328°
2026-04-27 20:25 -34.44879 -58.58300 11 ft 9 kts 319°
2026-04-27 20:25 -34.44854 -58.58385 11 ft 10 kts 226°
2026-04-27 20:26 -34.44968 -58.58519 11 ft 61 kts 226°
2026-04-27 20:26 -34.45464 -58.59092 70 ft 125 kts 226°
2026-04-27 20:26 -34.46148 -58.59895 421 ft 149 kts 224°
2026-04-27 20:26 -34.47028 -58.60777 641 ft 176 kts 219°
2026-04-27 20:27 -34.48015 -58.61737 960 ft 185 kts 221°
2026-04-27 20:27 -34.49024 -58.62743 1266 ft 190 kts 221°
2026-04-27 20:27 -34.50057 -58.63789 1550 ft 194 kts 227°
2026-04-27 20:27 -34.50570 -58.65258 1929 ft 189 kts 265°
2026-04-27 20:28 -34.50230 -58.66744 2370 ft 187 kts 302°
2026-04-27 20:28 -34.49205 -58.67664 2823 ft 188 kts 339°
2026-04-27 20:28 -34.47922 -58.67653 3276 ft 189 kts 16°
2026-04-27 20:28 -34.47165 -58.67119 3589 ft 189 kts 38°
2026-04-27 20:29 -34.45779 -58.65887 4209 ft 184 kts 12°
2026-04-27 20:29 -34.44543 -58.65634 4686 ft 179 kts
2026-04-27 20:29 -34.43320 -58.65445 5146 ft 178 kts
2026-04-27 20:29 -34.42076 -58.65259 5607 ft 184 kts
2026-04-27 20:30 -34.40793 -58.65068 6110 ft 187 kts
2026-04-27 20:30 -34.39506 -58.64876 6606 ft 189 kts
2026-04-27 20:30 -34.38193 -58.64677 7108 ft 189 kts
2026-04-27 20:30 -34.36899 -58.64476 7585 ft 190 kts
2026-04-27 20:31 -34.35581 -58.64274 8046 ft 192 kts
2026-04-27 20:31 -34.34253 -58.64073 8491 ft 193 kts
2026-04-27 20:31 -34.32937 -58.63876 8915 ft 194 kts
2026-04-27 20:31 -34.31599 -58.63678 9330 ft 195 kts
2026-04-27 20:32 -34.30246 -58.63474 9758 ft 198 kts
2026-04-27 20:32 -34.28883 -58.63271 10264 ft 198 kts
2026-04-27 20:32 -34.27524 -58.63072 10741 ft 199 kts
2026-04-27 20:32 -34.26141 -58.62872 11201 ft 200 kts
2026-04-27 20:33 -34.24762 -58.62669 11640 ft 201 kts
2026-04-27 20:33 -34.23363 -58.62456 12069 ft 203 kts
2026-04-27 20:33 -34.21977 -58.62232 12470 ft 204 kts
2026-04-27 20:33 -34.20556 -58.62049 12864 ft 205 kts
2026-04-27 20:34 -34.19127 -58.61935 13191 ft 209 kts
2026-04-27 20:34 -34.17693 -58.61895 13581 ft 208 kts 358°
2026-04-27 20:34 -34.16247 -58.61690 13929 ft 211 kts
2026-04-27 20:34 -34.14775 -58.61474 14267 ft 212 kts
2026-04-27 20:35 -34.13318 -58.61256 14590 ft 214 kts
2026-04-27 20:35 -34.11832 -58.61026 15031 ft 216 kts
2026-04-27 20:35 -34.10325 -58.60786 15489 ft 217 kts
2026-04-27 20:35 -34.08818 -58.60542 15914 ft 218 kts
2026-04-27 20:36 -34.07308 -58.60291 16318 ft 220 kts
2026-04-27 20:36 -34.05796 -58.60046 16704 ft 221 kts
2026-04-27 20:36 -34.04282 -58.59797 17075 ft 222 kts
2026-04-27 20:36 -34.02746 -58.59542 17435 ft 224 kts
2026-04-27 20:37 -34.01199 -58.59288 17782 ft 225 kts
2026-04-27 20:37 -33.99624 -58.59036 18119 ft 226 kts
2026-04-27 20:37 -33.98063 -58.58785 18488 ft 229 kts
2026-04-27 20:37 -33.96472 -58.58525 18916 ft 229 kts
2026-04-27 20:38 -33.94896 -58.58267 19299 ft 230 kts
2026-04-27 20:38 -33.93283 -58.58000 19669 ft 232 kts
2026-04-27 20:38 -33.91681 -58.57736 20018 ft 232 kts 359°
2026-04-27 20:38 -33.90057 -58.57683 20358 ft 229 kts 351°
2026-04-27 20:39 -33.88446 -58.57725 20684 ft 230 kts 350°
2026-04-27 20:39 -33.86840 -58.57782 21033 ft 231 kts 350°
2026-04-27 20:39 -33.85232 -58.57877 21304 ft 235 kts 354°
2026-04-27 20:39 -33.83566 -58.58000 21589 ft 237 kts 358°
2026-04-27 20:40 -33.81932 -58.58047 21893 ft 238 kts 358°
2026-04-27 20:40 -33.80462 -58.58086 22149 ft 238 kts 358°
2026-04-27 20:40 -33.78820 -58.58141 22418 ft 239 kts 358°
2026-04-27 20:40 -33.77141 -58.58204 22681 ft 241 kts 358°
2026-04-27 20:41 -33.75449 -58.58273 22934 ft 242 kts 358°
2026-04-27 20:41 -33.73769 -58.58342 23175 ft 243 kts 358°
2026-04-27 20:41 -33.72071 -58.58415 23420 ft 244 kts 357°
2026-04-27 20:41 -33.70366 -58.58489 23692 ft 245 kts 358°
2026-04-27 20:42 -33.68650 -58.58557 23950 ft 246 kts 358°
2026-04-27 20:42 -33.66938 -58.58627 24191 ft 247 kts 358°
2026-04-27 20:42 -33.65209 -58.58699 24423 ft 248 kts 358°
2026-04-27 20:42 -33.63492 -58.58773 24644 ft 249 kts 358°
2026-04-27 20:43 -33.61768 -58.58847 24854 ft 249 kts 358°
2026-04-27 20:43 -33.60030 -58.58922 25058 ft 250 kts 358°
2026-04-27 20:43 -33.58281 -58.58996 25253 ft 251 kts 358°
2026-04-27 20:43 -33.56525 -58.59060 25441 ft 252 kts 358°
2026-04-27 20:44 -33.54778 -58.59123 25619 ft 253 kts 358°
2026-04-27 20:44 -33.53003 -58.59190 25793 ft 253 kts 358°
2026-04-27 20:44 -33.51250 -58.59261 25956 ft 254 kts 358°
2026-04-27 20:44 -33.49456 -58.59337 26115 ft 255 kts 358°
2026-04-27 20:45 -33.47695 -58.59414 26264 ft 256 kts 358°
2026-04-27 20:45 -33.45907 -58.59491 26410 ft 256 kts 358°
2026-04-27 20:45 -33.44135 -58.59569 26548 ft 257 kts 358°
2026-04-27 20:45 -33.42363 -58.59647 26680 ft 257 kts 358°
2026-04-27 20:46 -33.40555 -58.59727 26809 ft 258 kts 358°
2026-04-27 20:46 -33.38743 -58.59806 26933 ft 258 kts 358°
2026-04-27 20:46 -33.36946 -58.59885 26993 ft 262 kts 358°
2026-04-27 20:46 -33.35101 -58.59965 27001 ft 265 kts 358°